GEFSSE_con_prob3kmehi_246.txt.gz
EHI
0 0 0 0 0 0 0 0 0 0 0 0 0 0 0 0 0 0 0 0 0 0 0 0 0 0 0 0 1 2 3 1 0 0 0 0 0 0 0 0 1 0 0
0 0 0 0 0 0 0 0 0 0 0 0 0 0 0 0 0 0 0 0 0 0 0 0 0 0 0 0 1 2 3 2 1 0 0 0 0 0 0 1 1 0 0
0 0 0 0 0 0 1 0 0 0 0 0 0 0 0 0 1 1 0 0 0 0 0 0 0 0 0 0 1 2 3 3 2 1 0 0 0 0 0 1 1 0 0
0 0 0 0 0 0 0 0 0 0 0 0 1 0 0 0 1 1 0 0 0 0 0 0 0 0 0 0 0 1 2 3 2 1 0 0 0 0 0 0 0 0 0
0 0 0 0 0 0 0 0 0 0 0 0 1 1 1 1 1 0 0 0 0 0 0 0 0 0 0 0 0 0 1 2 2 1 0 0 0 0 0 0 0 0 1
0 0 0 0 0 0 1 1 1 0 0 0 2 3 3 2 1 0 0 0 0 0 0 0 0 0 0 0 0 0 0 1 1 1 0 0 0 0 0 0 0 0 1
0 0 0 1 1 1 1 2 1 0 0 0 1 3 3 2 1 0 0 0 0 0 0 0 0 0 0 0 0 0 0 0 1 1 0 0 0 0 0 0 0 0 1
0 0 0 1 1 1 2 2 1 0 0 0 0 1 1 1 0 0 0 0 0 0 0 0 0 0 0 0 0 0 0 0 0 0 0 0 0 0 0 0 0 0 0
0 0 0 0 1 1 2 1 0 0 0 0 0 0 0 0 0 0 0 0 0 0 0 0 0 0 0 0 0 0 0 0 0 0 0 0 0 0 1 1 1 1 0
0 0 0 0 0 1 1 1 0 0 0 0 0 0 0 0 0 0 0 0 0 0 0 0 0 0 0 0 0 0 0 0 1 0 0 0 0 0 1 2 2 1 1
0 0 0 0 0 0 0 0 0 0 0 0 0 0 0 0 0 0 0 0 0 0 0 0 0 0 0 0 0 0 0 0 0 0 0 1 1 1 1 3 3 1 0
0 0 0 0 0 0 0 0 0 0 0 0 0 0 0 0 0 0 0 0 0 0 0 0 0 0 0 0 0 0 0 0 0 0 0 1 2 2 2 2 2 1 0
1 0 0 0 1 1 0 0 0 0 0 0 0 0 0 0 0 0 0 0 0 0 0 0 0 0 0 1 0 0 0 0 0 0 1 2 2 2 1 1 1 0 0
2 1 1 1 2 2 1 0 0 0 0 0 1 1 1 0 0 0 0 0 0 0 0 0 0 0 0 1 0 0 0 0 0 0 1 2 1 1 0 0 0 0 0
2 2 2 3 3 2 1 1 1 1 1 1 2 2 2 1 0 0 1 1 0 0 0 0 0 0 1 2 1 0 0 0 0 0 1 1 1 0 0 0 0 0 0
3 3 2 2 2 1 1 2 3 3 3 3 3 3 3 2 1 1 2 2 1 1 1 1 1 1 2 3 2 1 0 0 0 0 0 0 0 0 0 0 0 0 1
3 2 1 1 1 1 2 3 4 4 5 5 4 4 3 2 2 2 3 3 3 2 3 3 3 3 3 3 3 2 1 0 0 0 0 0 0 1 1 1 0 0 1
3 2 1 0 1 3 4 4 4 5 5 5 4 3 3 4 3 3 3 4 4 4 4 5 6 5 3 2 3 3 2 1 1 0 0 0 1 2 2 1 0 0 1
4 4 3 1 2 4 6 6 6 6 5 4 4 3 3 4 5 4 4 4 5 5 5 6 7 6 4 2 2 3 4 3 3 1 0 0 1 2 2 1 1 0 0
6 8 8 6 6 7 8 7 7 6 5 4 4 3 4 4 5 5 4 4 5 6 6 6 7 6 5 3 2 2 4 5 5 4 2 2 2 2 1 0 0 0 0
12 15 16 14 12 13 11 8 7 6 5 4 3 3 4 4 4 4 3 4 5 7 7 8 7 7 7 6 4 3 3 4 6 7 5 4 3 2 0 0 1 1 1
18 20 22 21 19 18 16 11 8 6 5 4 3 3 3 3 4 4 4 5 7 8 9 9 9 8 8 8 6 4 2 3 6 7 6 5 4 2 1 1 2 3 2
18 20 23 25 25 23 19 14 11 9 8 7 5 4 3 4 4 5 6 6 7 8 8 8 7 7 9 9 9 6 4 3 5 6 5 5 5 5 3 2 3 3 3
14 18 24 29 30 26 21 17 14 12 11 9 8 7 7 7 6 6 6 6 5 4 5 4 3 5 9 10 9 7 5 4 5 6 6 6 6 6 5 3 3 4 4
12 16 22 30 32 28 23 19 17 15 13 11 11 11 10 9 7 6 6 6 3 2 2 1 2 4 8 10 9 6 3 3 4 5 5 5 6 6 6 4 4 5 5
12 14 20 28 31 27 23 20 19 17 14 13 14 14 11 8 6 6 6 6 4 3 2 2 3 5 6 9 9 6 2 1 3 4 4 4 6 6 6 5 5 6 5

GEFSSE_con_prob3kmehi_252.txt.gz
EHI
8 7 6 5 3 3 3 3 3 3 3 3 4 5 5 5 5 4 5 5 6 6 7 5 4 3 4 4 4 5 6 6 5 4 3 3 3 3 4 4 4 4 6
8 6 5 4 3 3 3 3 3 3 3 3 3 4 4 4 4 4 4 4 5 6 7 5 3 3 4 5 4 4 5 6 5 4 3 3 3 3 4 4 4 4 6
6 4 4 3 3 3 3 3 3 3 3 3 3 3 3 3 3 3 3 3 4 6 6 4 3 4 5 5 4 3 4 5 6 5 3 2 2 3 3 4 3 4 5
5 5 4 3 4 3 3 4 3 3 3 3 3 3 3 3 3 3 3 3 4 5 5 4 3 3 4 4 3 3 3 4 5 5 3 1 1 3 3 3 3 3 4
8 8 5 4 5 4 5 5 4 3 4 3 3 3 3 3 3 3 3 3 4 5 4 3 3 3 3 3 3 3 3 3 4 5 3 1 1 3 3 3 3 3 3
9 8 6 5 6 6 6 6 5 4 4 4 3 3 3 3 3 3 3 3 4 4 4 3 3 3 3 3 3 2 1 2 4 4 3 2 3 3 3 3 3 3 3
5 5 6 7 7 7 7 7 5 4 4 4 4 3 3 3 3 3 3 3 4 4 4 3 3 3 3 3 3 2 2 3 4 4 4 5 5 4 3 3 3 3 3
4 3 5 8 9 8 8 7 5 4 3 4 4 4 4 4 4 4 4 3 3 3 3 2 2 3 3 3 3 3 5 6 4 3 5 7 6 4 3 3 3 3 3
4 3 4 7 9 10 9 7 5 4 4 4 4 4 4 5 5 5 5 4 3 3 1 1 1 1 3 3 4 5 9 9 5 2 4 6 7 5 4 3 3 3 3
2 2 2 4 7 10 9 8 8 7 6 4 4 4 5 7 7 6 6 5 4 3 1 1 1 2 3 5 6 8 9 9 5 1 2 6 8 6 4 3 3 3 3
1 2 3 4 6 7 9 10 11 11 8 6 6 7 9 9 8 7 8 9 7 4 3 3 4 4 5 7 9 9 9 7 5 2 3 9 11 7 4 4 3 3 3
2 3 6 8 7 6 8 11 11 11 11 8 8 11 11 9 8 8 11 13 11 7 6 8 9 8 7 7 10 11 9 7 5 3 5 11 13 8 5 5 4 3 3
4 6 8 9 9 7 8 9 9 10 12 10 10 12 11 8 7 9 12 14 13 11 10 11 13 11 8 8 11 11 8 6 6 5 6 11 13 8 6 5 4 3 3
5 6 9 10 11 12 11 10 9 9 11 12 13 13 13 11 9 9 11 13 13 12 12 12 13 12 9 9 11 10 7 5 6 6 8 13 15 11 9 8 6 4 4
6 7 9 11 14 16 15 13 10 10 12 14 14 14 15 14 12 10 10 12 12 11 11 12 13 13 12 11 10 9 7 5 6 6 9 13 16 15 13 11 9 6 5
9 10 11 13 16 18 17 15 12 11 14 15 15 14 14 14 13 12 11 12 11 10 11 13 15 16 15 12 11 11 9 6 6 7 9 11 12 13 14 14 13 10 8
13 15 14 13 16 17 17 16 15 12 13 16 17 14 13 13 12 12 12 13 12 12 13 15 17 18 16 13 13 13 11 9 7 8 10 10 9 9 12 14 14 12 11
18 19 16 14 16 18 19 19 17 14 14 17 18 16 14 13 13 12 11 12 14 15 16 17 17 16 16 16 16 15 14 14 11 11 12 13 11 10 11 13 14 13 11
26 25 20 16 17 20 22 22 19 16 16 17 19 18 17 16 15 14 13 14 16 16 16 15 15 16 18 18 18 17 17 18 18 16 14 15 17 17 14 14 14 12 9
40 38 32 25 22 22 22 22 20 17 17 19 21 22 20 19 18 16 16 18 18 16 15 13 13 17 20 19 17 16 17 21 23 21 18 18 21 22 18 17 15 11 7
52 52 47 37 30 26 23 23 22 20 18 20 23 24 22 19 18 16 16 18 18 16 14 14 15 18 20 18 15 13 14 19 22 23 21 20 20 20 19 20 19 14 9
55 56 53 46 37 31 27 26 24 21 18 20 25 26 22 19 16 14 14 16 17 17 16 17 19 18 17 15 11 9 10 14 18 19 20 20 19 18 18 20 22 20 14
51 52 54 53 44 36 32 29 25 21 19 22 28 29 25 19 15 14 14 16 17 17 17 19 21 19 16 14 10 8 8 11 13 14 16 19 19 17 15 16 21 23 19
47 50 56 60 55 47 40 33 29 25 23 24 28 30 26 20 17 16 16 17 17 16 15 16 17 18 17 14 11 9 9 10 12 13 14 17 18 16 14 14 18 22 22
45 50 59 63 62 57 48 40 35 30 26 24 25 27 24 21 20 20 20 21 19 15 13 13 14 15 15 12 9 8 9 10 11 12 14 14 15 15 15 15 17 19 20
45 51 59 64 65 61 53 45 39 33 28 24 24 24 22 20 21 21 23 25 22 15 13 13 13 13 13 11 8 7 9 9 10 11 13 14 13 13 15 16 15 15 15

GEFSSE_con_prob3kmehi_258.txt.gz
EHI
0 0 1 0 0 0 0 0 0 0 1 2 2 1 2 3 3 3 3 4 5 5 3 2 3 3 4 2 1 0 2 3 4 3 2 2 2 2 2 3 3 1 1
0 0 1 0 0 0 0 0 0 0 0 1 1 1 1 1 2 3 3 4 4 4 2 1 2 3 3 2 1 1 2 3 3 3 3 3 3 2 2 3 2 2 2
0 0 0 0 0 0 0 0 0 0 0 0 1 1 1 0 1 2 3 3 3 2 1 1 2 2 1 1 1 1 2 2 2 2 2 2 2 3 2 2 1 2 2
0 0 0 1 1 0 1 1 0 0 1 1 1 2 1 0 1 2 2 2 2 1 1 1 1 1 0 0 0 1 1 1 1 0 0 0 1 2 2 1 0 1 1
0 0 2 4 3 2 3 3 1 0 1 1 1 1 1 0 0 1 1 2 2 2 1 0 0 0 0 0 0 0 0 0 0 0 0 0 0 1 1 1 0 0 0
0 1 3 6 6 4 5 5 3 2 2 1 1 1 0 0 0 0 1 3 3 2 1 0 0 0 0 0 0 1 0 0 0 0 0 0 0 0 1 1 0 0 0
1 1 3 6 6 6 6 6 5 4 3 2 1 1 1 1 1 1 2 3 2 1 0 0 0 0 0 1 1 1 0 0 0 0 0 0 0 1 1 1 1 1 1
1 1 2 4 5 6 6 6 6 5 4 3 2 1 1 1 1 1 2 2 1 0 0 0 0 0 1 2 2 1 1 1 0 0 0 0 1 2 1 1 1 1 2
1 0 0 1 2 4 5 6 6 5 4 3 2 1 0 0 0 1 1 1 0 0 0 0 0 1 1 3 3 3 2 2 1 0 0 1 2 3 2 1 1 1 1
0 0 0 0 0 1 2 4 5 5 4 4 3 2 1 0 0 0 0 1 1 0 0 1 1 2 3 3 3 3 3 2 1 0 0 1 3 4 4 2 1 0 0
1 0 0 0 0 0 0 1 3 4 4 3 3 3 2 0 0 0 1 2 3 1 1 2 3 3 3 3 3 2 2 2 1 0 1 2 5 6 5 3 1 0 0
1 0 0 0 0 0 0 0 1 1 2 2 2 2 1 0 0 0 1 3 4 4 3 3 3 3 3 3 2 2 2 2 1 0 1 2 4 6 5 4 2 1 1
1 0 0 0 1 2 1 1 0 0 0 0 1 2 1 0 0 1 1 2 4 4 4 3 2 3 2 1 1 1 1 2 1 0 0 2 4 5 5 4 4 3 2
1 0 0 1 2 3 3 2 2 1 1 1 1 2 2 1 1 2 2 2 3 3 2 1 1 1 1 1 0 0 1 1 1 0 1 4 8 8 6 5 4 3 2
3 1 0 1 2 3 3 4 4 3 3 2 2 2 2 2 3 3 3 3 2 1 0 1 1 0 1 1 0 0 0 0 0 0 1 5 10 12 8 5 3 2 1
4 3 1 1 1 2 3 4 5 5 5 4 3 4 4 3 3 2 2 2 1 0 0 1 1 0 0 1 1 1 0 0 0 0 0 3 7 9 8 6 4 2 0
5 5 4 3 3 3 3 5 6 6 5 4 3 4 5 3 2 2 1 1 1 0 0 1 1 0 0 0 0 0 0 0 1 0 0 1 2 3 6 8 8 4 1
5 6 6 7 7 6 5 6 7 7 5 3 2 3 3 3 3 2 2 1 0 0 0 0 0 0 0 0 0 0 0 0 0 0 0 0 0 0 4 9 10 6 2
7 7 7 9 9 8 7 6 6 6 4 2 1 2 3 4 4 3 3 1 1 0 0 0 1 1 1 0 0 0 0 0 0 0 0 0 0 0 1 5 7 5 2
9 9 9 10 10 9 8 7 5 4 3 1 1 2 4 5 6 5 4 3 3 1 0 0 1 2 1 0 0 0 0 0 0 0 0 0 0 0 0 1 2 2 1
13 11 11 12 11 10 9 8 6 4 3 2 2 3 4 7 8 8 6 5 4 2 1 0 1 1 1 0 0 0 0 0 0 0 0 1 1 1 1 1 0 0 0
17 15 14 14 14 14 12 10 8 6 4 3 3 3 5 8 10 9 7 5 4 3 1 0 0 0 0 0 0 0 0 0 0 0 0 1 2 2 2 2 2 2 2
22 21 21 21 20 20 17 12 10 8 7 5 3 4 7 9 10 9 6 4 3 3 1 0 0 0 0 0 0 0 0 0 0 0 0 1 2 3 3 4 5 4 3
26 26 28 28 27 25 20 15 13 11 9 7 5 6 7 8 8 7 5 3 3 3 2 1 0 1 2 2 2 1 0 0 0 0 0 0 1 2 3 4 5 4 2
32 31 31 31 30 26 20 16 13 12 10 8 7 7 6 5 5 4 4 3 3 3 2 1 1 2 3 3 3 2 1 0 0 0 0 0 0 1 2 3 4 3 1
38 36 33 32 30 25 20 15 12 11 10 8 8 6 5 4 4 4 4 3 3 2 1 0 1 2 3 3 3 2 1 0 0 0 0 0 0 0 1 3 3 2 1

GEFSSE_con_prob3kmehi_264.txt.gz
EHI
0 0 1 0 0 1 2 3 1 0 0 1 2 3 3 4 5 5 5 4 2 1 0 1 2 2 1 0 1 1 1 0 0 0 0 0 0 0 0 0 0 0 0
0 1 1 1 0 1 2 2 1 0 0 0 1 2 2 2 4 6 6 4 2 1 1 2 3 1 0 0 0 1 0 0 0 0 0 0 0 0 0 0 0 0 0
0 1 2 2 2 2 2 1 1 0 0 0 0 1 1 1 3 5 6 4 2 1 1 3 3 1 0 0 0 1 0 1 2 1 1 0 0 0 0 0 0 0 0
0 0 1 3 4 4 3 2 1 0 0 0 0 0 0 1 2 4 5 5 3 3 3 3 2 1 0 0 0 0 0 1 2 1 0 0 0 0 0 0 0 0 0
0 0 2 4 5 6 6 4 2 1 0 0 0 0 0 1 2 4 5 4 3 3 3 2 1 0 0 0 0 0 0 0 1 0 0 0 0 0 0 0 0 0 0
0 0 3 5 6 7 7 6 4 2 1 1 1 0 0 1 3 4 4 3 2 2 2 1 0 0 0 1 2 1 0 0 0 0 0 0 0 0 0 0 0 0 0
0 0 3 6 7 7 7 6 5 3 2 2 2 1 1 2 3 4 3 2 1 2 2 1 0 0 0 1 2 1 0 0 0 0 0 0 1 1 1 0 0 0 0
0 0 2 5 6 6 6 5 4 4 3 3 1 1 1 1 2 2 2 1 1 1 1 0 0 0 0 0 1 1 0 0 0 0 0 0 1 1 1 0 0 0 0
0 0 1 2 3 4 4 4 3 3 2 1 0 0 0 0 1 1 1 1 1 1 1 0 0 0 0 0 0 1 0 0 0 0 0 0 0 0 0 0 1 1 0
0 0 0 0 0 1 2 2 2 1 1 0 0 0 0 0 0 0 0 0 1 2 2 1 0 0 0 0 0 1 0 0 0 0 0 0 0 0 0 0 1 1 1
0 0 0 0 0 0 0 1 1 0 0 0 0 0 0 0 0 0 0 0 1 1 1 1 0 0 1 1 0 0 0 0 0 0 0 0 0 0 0 1 1 1 1
0 0 0 0 0 0 0 0 0 0 0 0 0 0 0 0 0 0 0 0 0 0 0 0 0 0 1 2 1 0 0 0 0 0 0 0 0 0 0 2 3 2 1
0 0 0 0 0 0 0 0 0 0 0 0 0 0 0 0 0 0 0 0 0 0 0 0 0 0 1 1 1 0 0 0 0 0 0 0 0 0 0 1 3 3 2
0 0 0 0 0 0 0 0 0 0 0 0 0 0 0 0 0 0 0 0 0 0 0 0 0 0 0 0 0 0 0 0 0 0 0 0 0 1 1 1 2 1 1
0 0 0 0 0 0 0 0 0 0 0 0 0 0 0 0 0 0 0 0 0 0 0 0 0 0 0 0 0 0 0 0 0 0 0 0 1 2 2 1 1 1 0
0 0 0 0 0 0 0 0 0 0 0 0 0 0 0 0 0 0 0 0 0 0 0 0 0 0 0 0 0 0 0 0 0 0 0 0 1 2 2 1 1 2 1
0 0 0 0 0 0 0 0 0 0 0 0 0 0 0 0 0 0 0 0 0 0 0 0 0 0 1 1 0 0 0 0 0 0 0 0 1 1 2 2 2 2 3
0 0 0 0 0 0 0 0 1 0 0 0 1 1 1 1 1 0 0 0 0 0 1 1 1 1 1 0 0 0 0 0 0 0 0 0 0 0 1 3 4 3 4
0 0 0 1 1 1 1 0 0 0 1 1 2 2 2 2 2 1 0 0 0 1 2 2 2 1 0 0 0 0 0 0 0 0 0 0 0 0 1 2 3 3 4
0 0 0 1 3 4 3 1 1 2 2 3 3 3 3 3 4 4 2 1 1 2 2 2 1 0 0 0 0 0 0 0 0 0 0 0 0 0 0 0 1 2 2
1 1 1 2 6 7 6 4 4 4 3 3 3 3 3 3 4 5 4 2 2 3 2 1 0 0 0 0 0 0 0 0 0 0 0 0 0 0 0 0 0 0 1
2 3 3 4 7 8 8 7 5 4 3 3 3 3 4 4 4 3 3 2 3 3 2 1 0 0 0 0 0 0 0 0 0 0 0 0 0 0 0 0 0 0 0
3 4 5 6 6 7 8 7 4 3 3 3 4 4 4 4 4 2 1 1 2 3 2 1 0 0 0 0 0 0 0 0 0 0 0 0 0 0 0 0 0 0 0
3 4 5 6 6 6 6 5 3 2 3 4 4 5 4 3 2 1 0 0 1 2 2 1 0 0 0 1 1 0 0 0 0 0 0 0 0 0 0 0 0 0 0
4 5 6 6 5 4 4 3 2 3 4 4 4 4 3 1 1 1 0 0 0 1 1 0 0 0 1 2 2 1 0 0 0 0 0 0 0 0 0 0 0 0 0
6 7 7 6 5 4 3 2 2 3 4 4 3 3 2 1 1 0 0 0 0 0 0 0 0 0 1 2 3 2 1 0 0 0 0 0 0 0 0 0 0 0 0

GEFSSE_con_prob3kmehi_270.txt.gz
EHI
3 3 4 6 6 5 4 3 3 3 3 3 3 3 3 3 3 4 5 6 6 6 4 4 5 4 4 3 3 2 3 5 5 4 3 3 3 3 3 3 3 4 5
3 3 4 6 6 5 4 3 3 3 3 3 3 4 4 3 3 4 5 6 6 6 4 3 4 5 4 3 3 3 3 4 4 4 3 3 3 3 3 3 3 3 4
3 4 5 6 6 4 3 3 3 3 3 3 5 6 5 4 3 4 6 6 6 6 4 3 4 5 5 4 3 3 3 3 4 4 3 3 3 3 3 3 3 3 3
3 4 5 7 6 5 4 4 4 3 3 4 6 8 6 4 3 4 5 6 6 6 4 3 4 4 4 3 3 3 3 3 3 3 2 1 1 3 3 3 3 3 3
4 4 6 7 6 6 6 6 5 4 3 3 5 6 6 4 3 3 4 5 6 6 4 4 5 5 4 3 3 3 3 3 3 2 1 0 1 2 3 3 3 3 3
4 5 6 6 6 6 6 6 6 4 3 3 3 4 5 4 3 3 4 5 6 6 4 4 6 5 4 3 3 3 3 3 2 1 0 0 1 2 3 3 3 3 3
2 3 4 6 6 6 6 6 5 4 3 3 3 3 4 5 4 4 5 6 7 6 4 5 6 5 4 3 3 3 3 3 1 0 0 0 1 3 3 3 3 3 3
0 1 3 5 5 5 5 4 4 3 3 3 3 3 4 5 4 5 7 8 8 6 5 5 5 5 4 3 3 3 3 3 1 1 1 1 2 3 3 3 3 3 3
0 1 3 4 5 5 5 5 4 4 4 4 4 4 5 4 4 5 7 8 7 6 5 5 4 4 4 4 3 3 3 3 3 2 1 2 3 3 3 3 3 3 3
0 1 3 3 4 4 5 6 5 4 4 5 5 5 5 4 4 5 5 5 5 5 4 4 3 3 4 4 4 3 3 3 3 2 1 2 4 4 3 3 3 3 4
1 2 3 3 3 3 4 5 6 5 5 5 4 4 4 4 4 5 4 4 4 5 5 5 5 4 4 4 4 4 3 3 3 2 2 3 4 4 3 3 3 4 5
3 3 3 3 3 3 4 5 5 6 6 5 4 4 4 4 4 5 5 5 5 6 6 7 7 5 4 4 4 4 4 3 3 2 2 4 5 4 3 3 3 4 5
3 3 3 3 3 3 3 4 5 6 7 7 6 6 5 4 4 4 5 5 4 4 5 6 7 7 6 5 4 4 3 3 3 3 2 4 5 4 3 3 3 3 4
3 3 3 3 3 3 3 3 4 5 6 7 7 7 6 5 4 4 5 5 4 3 4 5 7 8 8 8 6 4 2 2 2 3 3 4 4 4 3 3 3 3 3
3 3 3 3 3 4 4 4 4 4 4 5 6 6 6 6 5 4 5 5 4 4 5 6 8 9 8 7 6 4 2 1 1 2 3 4 3 3 3 3 3 3 3
3 3 3 3 4 5 6 5 4 4 4 4 5 6 6 5 5 5 6 7 6 6 7 8 9 7 6 5 4 4 2 1 0 0 1 2 2 3 3 3 4 4 4
3 3 3 3 5 6 7 6 6 6 6 6 6 6 5 4 4 6 7 7 8 9 9 9 8 6 4 4 4 4 3 3 1 1 1 1 1 2 3 4 5 5 5
3 3 3 4 5 7 7 7 7 6 6 6 5 4 4 4 5 6 7 7 9 10 9 9 7 5 3 4 5 4 4 5 4 3 2 2 2 2 3 4 5 5 5
3 3 4 4 5 7 8 8 8 7 6 5 4 4 5 6 7 7 7 8 9 10 10 8 6 5 4 4 4 4 5 6 6 4 3 3 3 3 3 4 4 5 4
4 4 5 6 7 9 9 9 9 9 8 5 5 6 7 7 7 7 7 8 9 9 9 8 5 4 5 5 4 4 5 6 5 4 3 3 3 4 3 4 4 5 5
4 5 7 9 11 13 12 12 12 11 10 9 9 9 9 8 6 6 6 8 9 8 8 7 5 4 5 6 4 4 4 4 4 4 3 2 2 2 3 3 4 5 7
5 5 7 11 14 16 15 15 14 14 13 13 13 12 11 8 5 4 4 4 5 6 6 6 5 4 4 4 4 3 2 2 2 1 1 1 1 1 1 2 4 6 9
5 5 7 12 15 16 17 16 16 16 16 15 15 13 11 8 5 3 1 1 1 2 4 5 4 3 2 2 2 1 1 1 0 0 0 0 0 0 0 1 3 7 10
7 6 8 13 17 18 18 17 17 17 16 15 13 12 9 6 5 3 1 0 0 1 2 4 4 3 3 2 1 1 2 2 2 1 1 1 0 0 0 0 2 6 9
11 10 12 17 21 21 19 18 18 17 15 13 12 10 8 6 4 2 1 0 0 0 1 3 4 4 3 3 3 3 4 5 4 2 1 1 1 1 1 1 1 3 6
14 13 16 22 25 22 19 18 18 17 15 13 12 10 8 6 4 2 0 0 0 0 0 2 4 4 2 3 4 5 6 6 5 3 1 0 1 1 2 2 1 2 4

GEFSSE_con_prob3kmehi_276.txt.gz
EHI
0 1 3 4 3 1 0 1 1 2 2 1 0 0 0 0 0 0 1 3 5 6 7 6 3 2 1 1 2 3 4 4 3 1 0 0 0 0 0 0 0 0 1
1 2 4 4 3 2 1 1 1 2 2 1 0 0 0 0 0 0 1 2 3 3 4 4 2 1 1 1 3 3 4 4 2 0 0 0 0 0 0 0 1 1 2
2 3 4 4 3 1 1 1 1 1 1 1 0 0 0 0 0 0 1 1 1 1 1 2 2 2 3 3 3 3 3 2 1 0 0 0 0 0 0 1 2 2 2
2 4 4 3 2 1 1 1 0 0 0 0 0 0 0 0 0 1 1 1 1 1 1 1 2 3 4 4 4 3 2 1 0 0 0 0 0 0 1 2 3 2 1
3 5 6 5 3 1 0 0 0 0 0 0 0 0 0 0 1 2 2 3 3 2 2 2 2 4 4 4 3 3 1 0 0 1 1 1 2 2 2 2 2 1 0
4 6 8 7 4 2 0 0 0 1 0 0 0 0 0 0 1 2 3 3 4 4 3 1 1 3 3 3 3 2 1 0 1 1 2 3 3 3 3 2 1 0 0
4 5 7 6 4 2 1 0 0 1 0 0 0 0 0 0 1 3 3 3 4 4 3 1 0 1 2 3 3 1 1 1 1 0 1 4 4 4 3 2 1 1 0
4 5 5 5 4 3 2 1 1 1 0 0 1 2 1 1 3 4 3 3 3 3 1 0 0 0 1 2 1 1 2 3 2 0 2 5 7 6 4 2 2 2 1
3 4 4 4 4 5 4 4 3 2 1 1 2 4 3 3 4 5 3 2 2 2 1 0 0 0 0 0 0 0 2 4 3 1 3 9 13 10 5 3 3 2 1
2 2 3 3 5 6 7 7 5 4 4 3 4 5 5 4 5 4 3 3 3 3 2 1 1 1 1 1 1 1 2 2 2 1 5 12 16 13 7 4 2 1 0
1 1 2 3 4 4 6 8 9 9 9 7 7 7 6 4 3 3 4 5 6 6 4 3 3 2 2 2 3 3 2 0 1 2 7 15 19 15 9 5 2 0 0
0 0 2 3 2 2 3 7 10 12 13 11 10 10 8 4 2 2 6 10 10 8 7 5 3 2 2 3 4 4 2 0 1 3 9 18 21 18 12 6 3 1 0
0 1 2 3 3 2 2 5 7 11 13 11 11 11 9 6 5 5 8 13 13 11 10 8 5 3 3 3 4 3 1 0 1 3 10 18 22 19 14 8 4 2 1
1 1 3 5 5 4 4 4 5 7 9 10 11 11 9 8 8 9 10 12 13 13 13 11 9 8 7 6 5 3 2 1 1 3 8 16 20 19 14 9 6 4 3
3 4 6 8 7 7 7 7 6 7 7 9 10 11 10 9 9 10 11 12 13 13 13 14 12 10 9 8 7 6 5 3 2 3 6 12 17 17 14 11 8 5 4
6 8 11 13 11 10 9 8 8 7 6 8 11 13 11 10 10 11 11 12 13 12 13 13 12 10 9 8 8 8 7 6 5 5 6 8 13 15 14 13 12 9 8
10 12 14 15 15 14 12 11 10 8 8 10 14 15 13 11 11 11 12 12 12 12 11 9 9 9 8 7 8 9 10 9 8 8 8 8 9 12 13 15 17 15 13
14 15 15 15 16 16 15 14 12 10 12 14 15 15 12 11 11 12 12 11 10 10 8 6 6 8 8 7 8 10 12 13 12 10 10 10 10 12 14 17 20 18 14
20 20 19 18 18 17 16 16 15 14 14 15 17 15 13 12 13 14 13 11 11 8 5 4 5 8 8 7 7 8 11 14 15 14 13 14 16 18 19 21 22 17 14
26 26 24 24 23 20 17 18 18 17 16 17 19 19 17 15 14 14 13 13 12 8 5 4 5 7 9 6 5 6 9 15 19 19 17 19 22 26 27 26 23 17 14
32 32 30 30 29 25 21 21 20 20 19 18 20 21 19 16 14 13 13 13 13 9 7 6 6 7 6 4 4 7 9 14 19 20 21 22 24 27 30 30 27 22 18
35 36 36 37 35 31 28 25 24 23 21 19 21 21 19 16 14 13 14 13 11 8 7 8 8 5 3 2 3 6 6 9 12 16 20 23 22 23 26 29 31 30 27
33 36 41 44 43 37 32 29 28 27 24 21 21 21 19 16 14 13 14 12 9 6 5 6 6 4 2 0 2 3 4 5 7 11 15 19 21 22 21 22 27 32 34
30 35 44 50 48 42 35 31 31 30 26 23 23 23 20 17 14 14 15 12 9 5 3 3 4 4 3 1 1 3 5 6 7 8 9 12 17 20 20 17 20 29 35
29 35 45 52 52 47 40 35 34 32 29 26 25 26 23 18 16 16 16 14 10 6 3 2 3 4 4 3 2 3 5 7 7 6 6 8 11 16 19 19 20 26 31
27 34 44 52 54 50 44 39 35 34 32 28 27 28 24 20 18 16 15 14 11 7 3 2 2 3 4 4 3 3 4 5 6 6 6 6 7 12 18 22 24 26 28

GEFSSE_con_prob3kmehi_282.txt.gz
EHI
0 1 3 6 7 8 8 9 9 7 6 5 5 5 7 9 7 3 1 0 0 1 2 3 4 2 1 0 1 0 0 1 1 1 1 3 6 4 1 0 0 0 0
0 1 4 6 6 7 8 9 9 7 5 4 4 5 6 7 6 4 2 1 0 1 1 3 3 2 0 1 1 1 0 1 1 0 0 1 3 3 1 0 0 0 0
0 1 3 5 5 5 7 8 8 6 5 4 4 5 5 5 5 4 2 1 1 1 1 2 2 1 0 1 2 1 1 1 1 0 0 0 1 1 1 0 0 0 0
0 0 2 3 3 3 4 5 5 4 5 5 4 4 3 3 3 3 1 1 1 1 1 1 1 1 0 1 2 2 1 1 1 0 0 0 0 1 1 1 0 0 0
0 0 1 3 3 2 2 3 3 2 3 3 2 1 1 1 2 1 0 0 0 0 0 0 0 0 0 1 2 2 1 0 0 0 0 0 0 1 2 2 1 1 0
0 0 1 3 4 2 1 2 2 1 1 1 0 0 1 1 1 1 1 2 1 0 0 0 0 0 0 1 1 1 1 1 0 0 0 0 0 1 3 4 3 2 1
0 0 1 4 4 3 3 3 2 1 0 0 1 1 2 2 1 2 4 4 3 1 0 0 0 0 0 0 0 0 0 0 0 0 0 0 0 2 4 5 4 4 3
0 0 1 2 3 3 3 3 3 2 1 2 3 3 3 3 3 3 5 4 3 2 0 0 0 0 0 0 0 0 0 0 0 0 0 0 1 4 6 6 5 5 4
0 0 0 1 1 2 3 3 4 4 4 5 6 5 4 4 3 4 5 5 3 2 0 0 0 0 0 1 1 0 0 0 0 0 0 0 1 5 8 6 4 4 5
0 0 0 0 0 1 1 3 5 6 6 6 7 7 6 4 4 4 6 5 3 2 1 1 1 1 1 2 2 1 0 0 0 0 0 0 2 6 8 7 5 4 4
0 0 0 0 0 0 0 2 6 7 6 5 5 6 5 4 3 3 5 5 4 3 3 3 4 3 1 2 2 1 0 0 0 0 0 1 3 6 8 8 6 5 4
0 0 0 0 0 0 0 1 4 5 4 3 2 2 2 2 2 2 3 4 4 3 3 4 5 3 1 1 1 0 0 0 0 0 0 2 5 7 9 10 8 6 4
0 0 0 0 0 1 1 1 2 3 2 1 0 0 1 1 1 1 1 2 3 2 2 2 3 2 0 0 0 0 0 0 0 0 0 3 8 11 12 12 10 7 5
0 0 1 1 1 2 2 3 3 3 2 2 1 1 2 3 2 1 0 0 1 1 0 1 1 0 0 0 0 1 1 0 0 0 1 5 11 14 14 13 12 9 8
0 0 2 3 4 4 4 4 4 4 4 5 5 4 4 5 3 1 1 1 1 1 1 1 1 1 1 1 1 1 2 1 1 1 1 5 13 15 13 13 13 12 11
1 1 3 4 5 6 6 6 6 5 6 7 7 7 6 5 4 3 3 3 3 2 2 3 3 2 2 1 1 2 3 3 2 2 1 3 9 13 11 11 13 12 11
3 4 5 5 6 6 6 6 6 5 5 5 6 7 6 5 4 3 3 2 2 1 1 3 3 1 1 1 1 1 2 3 3 2 1 1 4 7 8 9 12 12 10
7 8 7 7 6 6 6 5 4 4 3 3 4 6 6 5 4 3 2 1 1 0 1 2 2 0 0 0 0 1 1 2 2 2 2 1 1 2 4 7 12 13 12
11 11 9 7 6 6 6 4 3 3 3 3 4 5 6 6 5 4 2 1 1 1 1 2 2 1 0 0 0 0 0 0 1 2 3 2 1 1 1 5 10 14 16
12 12 10 7 5 5 5 5 4 4 4 3 3 5 6 6 6 5 3 2 2 2 2 2 2 1 0 0 0 0 0 0 0 1 2 2 2 2 1 3 6 10 14
13 12 11 8 6 6 7 6 6 6 6 5 5 5 6 6 7 6 4 2 1 1 1 1 1 0 0 0 0 0 0 0 0 0 1 1 2 3 3 3 3 4 6
13 13 12 10 8 8 8 7 8 8 8 7 7 7 8 8 8 7 4 1 0 0 0 0 0 0 0 0 0 0 0 0 0 0 0 0 2 3 4 5 4 2 1
12 13 12 10 8 8 8 8 8 9 9 9 9 9 9 9 10 7 4 1 0 0 0 0 0 0 1 1 1 1 1 1 0 0 0 1 2 3 3 5 7 5 3
12 13 13 12 10 9 8 8 8 10 10 10 9 9 8 8 8 5 2 1 0 0 0 0 0 0 1 2 2 2 2 2 1 1 0 1 1 1 2 4 8 8 6
14 13 13 15 15 13 11 10 11 12 12 11 9 8 7 7 5 3 1 0 0 0 0 0 0 0 1 2 3 3 3 3 3 2 1 0 0 0 0 2 5 6 6
14 12 14 18 18 17 15 14 14 14 14 12 9 7 6 6 5 2 0 0 0 0 0 0 0 0 0 1 3 3 3 3 3 3 2 1 0 0 0 1 2 3 4

GEFSSE_con_prob3kmehi_288.txt.gz
EHI
0 2 4 6 7 7 6 5 5 5 7 10 7 2 0 1 2 3 3 2 1 0 0 0 1 3 4 2 0 0 0 0 0 0 0 0 0 0 0 0 0 0 0
0 2 4 6 7 8 7 6 5 6 7 8 5 2 0 1 2 3 4 4 3 1 0 0 1 3 3 2 1 1 0 0 0 0 0 0 0 0 0 0 0 0 0
0 1 4 6 7 8 8 6 5 5 5 4 3 1 1 2 3 3 4 5 4 2 1 1 1 2 2 2 2 2 1 0 0 0 0 0 1 1 1 0 0 0 1
0 1 3 6 7 7 7 7 5 4 3 2 1 1 1 3 4 4 4 4 5 4 3 2 2 1 1 2 2 3 2 1 0 0 0 0 1 2 2 1 0 0 1
0 0 2 5 6 6 7 7 6 5 3 2 2 2 2 3 3 3 3 3 5 5 4 3 2 1 2 3 3 3 3 2 0 0 0 0 0 1 1 1 1 1 2
0 0 2 5 6 5 5 6 6 6 5 5 4 3 1 1 2 2 1 2 3 3 3 2 1 1 4 5 4 3 3 1 0 0 0 0 0 0 0 0 1 3 4
0 0 1 3 4 4 5 6 5 5 5 6 6 4 1 0 1 1 2 2 2 1 1 1 0 1 3 4 4 3 3 1 0 0 0 0 0 0 0 0 2 4 5
0 0 0 1 2 3 4 5 5 5 5 6 5 3 1 0 0 1 1 1 2 2 2 0 0 1 1 2 2 2 2 1 0 0 0 0 0 0 0 1 3 4 4
0 0 0 0 1 2 3 4 4 6 7 6 5 3 2 1 0 0 0 0 1 3 3 1 1 1 1 0 1 1 1 1 0 0 0 0 0 0 0 2 3 3 3
0 0 0 0 0 0 1 1 3 6 7 6 4 3 2 2 1 0 0 0 0 2 3 2 2 2 1 0 0 0 0 0 0 0 0 0 0 0 0 1 1 1 2
0 0 0 0 0 0 0 0 1 3 3 3 2 1 1 2 2 0 0 0 1 1 2 3 3 2 0 0 0 0 0 0 0 0 0 0 0 0 0 0 0 0 1
0 0 0 0 0 0 0 0 0 1 1 1 1 1 1 2 2 0 0 0 1 2 2 3 3 1 0 0 0 0 0 0 0 0 0 1 1 1 1 0 0 0 1
0 0 0 0 0 0 0 0 0 0 0 1 2 2 3 3 2 1 0 0 1 1 1 2 1 0 0 0 0 0 0 0 1 1 1 1 2 2 1 0 0 1 2
0 0 0 0 0 0 0 0 0 0 0 1 2 3 3 3 2 1 0 0 0 0 0 0 0 0 0 0 0 0 0 0 1 1 1 1 1 2 2 1 2 4 5
0 1 1 1 1 0 0 0 0 0 0 0 1 2 2 2 2 1 0 0 0 0 0 0 0 0 0 0 0 0 0 0 1 1 0 0 1 2 3 3 4 5 6
1 2 2 2 2 1 1 0 0 0 0 0 0 1 1 1 1 0 0 0 0 0 0 0 0 0 0 0 0 0 0 0 0 0 0 0 0 2 3 4 4 5 5
1 2 2 2 2 2 2 1 0 0 0 0 0 0 0 1 1 0 0 0 1 1 1 0 0 0 0 0 0 0 0 0 0 0 0 0 0 1 3 4 4 5 5
0 1 1 1 2 3 3 1 1 0 1 1 1 1 1 3 3 1 1 1 2 2 2 1 0 0 0 0 0 0 0 0 0 0 0 0 0 0 1 3 5 5 5
0 0 0 1 2 3 3 3 2 2 2 2 2 2 2 4 5 4 3 2 2 3 3 1 0 0 0 0 0 0 0 0 0 0 0 0 0 0 0 2 3 4 4
0 0 0 1 2 4 5 4 4 4 3 2 1 1 2 4 5 5 4 3 3 3 2 1 0 0 0 0 0 0 0 0 0 0 0 0 0 0 0 0 1 2 2
0 0 0 0 1 3 5 6 6 5 4 2 1 1 2 3 4 4 4 3 3 2 1 1 0 0 0 0 0 0 0 0 0 0 0 0 0 0 0 0 1 1 1
0 1 1 1 1 3 5 6 6 6 4 2 1 2 3 3 4 5 4 3 1 1 0 0 0 0 0 0 0 0 0 0 0 0 0 0 0 0 0 1 2 2 1
1 2 2 2 3 4 5 5 6 6 4 3 2 3 3 4 5 5 3 1 0 0 0 0 0 0 0 0 0 0 0 0 0 0 0 0 0 0 1 2 2 3 4
3 3 3 3 4 4 5 6 6 6 4 3 3 3 3 3 4 3 1 0 0 0 0 0 0 0 0 0 0 0 0 0 0 0 0 0 0 0 1 2 3 4 5
3 3 3 3 3 4 5 6 6 6 4 3 3 3 3 3 2 2 1 0 0 0 0 0 0 0 0 0 0 0 1 1 0 1 1 1 1 0 0 1 1 3 5
2 3 4 3 3 3 4 6 6 6 4 3 2 3 3 2 1 1 0 0 0 0 0 0 0 0 0 0 0 1 2 2 1 2 2 2 2 1 0 0 0 2 3

GEFSSE_con_prob3kmehi_294.txt.gz
EHI
0 2 6 7 4 4 5 6 6 5 2 0 0 0 0 0 0 0 0 0 0 0 0 0 1 2 3 1 0 1 1 1 0 0 0 1 1 1 0 0 0 1 1
0 2 5 6 4 4 5 5 5 4 2 1 0 0 0 0 0 0 0 0 0 0 0 0 1 1 1 0 0 0 0 0 0 0 0 0 0 0 0 0 0 0 1
0 1 4 5 4 4 5 4 4 3 2 1 0 1 1 1 0 0 0 0 0 0 0 0 0 0 0 0 0 0 0 0 0 0 0 0 0 0 0 0 1 0 0
0 1 2 3 3 4 4 4 3 3 1 0 1 2 2 1 0 0 0 0 0 0 0 0 0 0 1 0 0 0 0 0 0 0 0 0 0 0 0 0 0 0 0
0 0 1 2 3 3 3 3 3 2 1 0 1 1 1 1 0 0 0 0 0 0 0 0 0 0 0 0 0 0 0 0 0 0 0 0 0 0 0 0 0 0 0
0 0 1 2 2 1 1 1 1 2 2 1 0 0 0 0 0 0 0 0 0 0 0 0 0 0 0 0 0 0 0 0 0 0 0 0 0 0 0 0 0 0 0
0 0 1 2 2 0 0 0 0 1 1 1 0 0 0 0 0 0 0 0 0 0 0 0 0 0 0 0 0 0 0 0 0 0 0 0 0 0 0 0 0 0 0
0 0 1 2 2 1 1 1 0 0 0 0 0 0 0 0 0 0 0 0 0 0 0 0 0 0 0 0 0 0 0 0 0 0 0 0 0 0 0 0 0 0 0
0 0 0 1 2 2 3 3 1 1 1 0 0 0 0 0 0 0 0 0 0 0 0 0 0 0 0 0 0 0 0 0 0 0 0 0 0 0 0 0 0 0 0
0 0 0 0 1 2 4 4 4 3 2 0 0 0 0 0 0 0 0 0 0 0 0 0 0 0 0 0 0 0 1 1 0 0 0 0 0 0 0 0 0 0 0
0 0 0 0 0 1 2 4 5 4 2 1 1 1 1 0 0 0 0 0 0 0 0 0 0 0 0 0 0 0 1 1 0 0 0 1 1 0 0 0 0 0 0
0 0 0 0 0 0 1 4 6 5 3 3 3 3 2 1 1 1 2 3 3 2 1 1 1 1 0 0 0 0 0 0 0 0 1 2 2 0 0 0 0 0 1
0 0 0 0 0 0 1 3 5 5 3 3 4 4 4 3 2 3 4 4 4 3 2 2 2 1 0 0 0 0 0 0 0 1 2 3 3 1 1 1 1 1 2
0 0 0 0 0 1 2 2 2 3 2 2 3 5 5 4 4 4 4 3 2 2 1 2 2 1 0 0 0 0 0 0 0 0 1 3 3 3 2 2 2 3 3
0 0 0 0 1 2 4 3 3 3 2 1 2 4 5 5 4 4 5 3 1 1 2 2 1 1 1 0 0 0 0 0 0 0 1 2 3 3 2 2 2 3 4
0 0 0 0 1 3 6 7 6 5 5 2 2 3 5 5 4 5 5 5 3 3 4 3 2 2 2 1 0 0 0 0 0 0 0 1 2 1 1 1 1 3 3
0 0 0 1 2 4 7 8 7 6 5 4 3 4 5 6 5 5 5 4 4 4 5 4 3 3 3 1 1 0 0 0 0 0 0 0 0 1 2 2 2 2 2
0 1 2 2 3 6 9 9 7 6 6 5 4 4 5 6 6 6 5 5 5 6 6 5 4 5 4 3 2 1 0 0 0 0 0 0 0 1 3 6 6 4 4
0 1 3 4 4 6 8 8 7 7 8 7 7 6 6 7 7 7 7 8 7 8 8 7 6 7 7 5 3 2 1 1 1 0 0 0 0 1 3 7 9 8 7
0 1 3 4 4 5 6 6 6 7 9 10 10 9 8 9 9 9 10 10 9 9 9 9 8 8 8 6 4 3 2 1 1 0 0 0 1 1 4 8 11 10 8
1 1 3 4 4 4 5 5 6 7 9 11 11 10 10 10 10 10 11 10 9 9 9 10 9 9 7 6 5 5 3 2 1 0 0 1 1 2 4 8 11 11 9
3 3 4 5 5 5 6 6 7 8 9 10 10 10 9 9 9 10 10 9 9 9 9 10 9 9 7 7 7 6 5 4 3 1 0 1 2 3 4 7 12 13 12
5 4 4 6 7 7 7 8 8 9 9 9 10 9 8 8 8 9 9 9 9 9 9 9 9 9 8 8 9 9 8 6 4 3 2 3 5 5 5 6 10 13 14
4 4 5 8 10 10 9 8 8 8 8 8 8 8 8 7 7 8 9 9 9 9 9 9 9 10 10 9 10 11 10 9 8 7 6 6 8 8 7 7 8 11 14
2 4 7 11 14 15 13 11 10 9 8 8 8 9 8 7 6 6 8 10 10 9 9 10 11 11 11 10 11 12 11 10 11 11 9 9 9 8 7 6 6 7 10
3 5 9 13 16 17 16 15 14 11 9 9 10 10 9 6 4 5 7 10 11 9 10 12 13 12 11 10 11 12 11 10 10 11 11 10 9 8 7 6 5 5 6